QPF
0.00 0.00 0.00 0.00 0.00 0.00 0.00 0.00 0.00 0.00 0.00 0.00 0.00 0.00 0.00 0.00 0.00 0.00 0.00 0.00 0.00 0.00 0.00 0.01 0.02 0.02 0.01 0.02 0.02 0.01 0.01 0.01 0.02 0.03 0.04 0.04 0.05 0.04 0.04 0.05 0.04 0.03 0.03 0.03
0.00 0.00 0.00 0.00 0.00 0.00 0.00 0.00 0.00 0.00 0.00 0.00 0.00 0.00 0.00 0.00 0.00 0.00 0.00 0.00 0.00 0.00 0.00 0.00 0.00 0.01 0.01 0.01 0.01 0.01 0.01 0.01 0.02 0.02 0.02 0.03 0.04 0.04 0.03 0.04 0.04 0.03 0.02 0.04
0.00 0.00 0.00 0.00 0.00 0.00 0.00 0.00 0.00 0.00 0.00 0.00 0.00 0.00 0.00 0.00 0.00 0.00 0.00 0.00 0.00 0.00 0.00 0.00 0.00 0.00 0.00 0.01 0.01 0.00 0.01 0.01 0.01 0.01 0.01 0.01 0.03 0.03 0.03 0.04 0.05 0.03 0.02 0.03
0.00 0.00 0.00 0.00 0.00 0.00 0.00 0.00 0.00 0.00 0.00 0.00 0.00 0.00 0.00 0.00 0.00 0.00 0.00 0.00 0.00 0.00 0.00 0.00 0.00 0.01 0.00 0.00 0.00 0.00 0.01 0.01 0.01 0.01 0.01 0.02 0.03 0.04 0.04 0.04 0.05 0.04 0.03 0.03
0.00 0.00 0.00 0.00 0.00 0.00 0.00 0.00 0.00 0.00 0.00 0.00 0.00 0.00 0.00 0.00 0.00 0.00 0.00 0.00 0.00 0.00 0.00 0.00 0.01 0.01 0.01 0.00 0.00 0.00 0.01 0.01 0.01 0.01 0.01 0.02 0.02 0.03 0.03 0.03 0.04 0.04 0.04 0.03
0.00 0.00 0.00 0.00 0.00 0.00 0.00 0.00 0.00 0.00 0.00 0.00 0.00 0.00 0.00 0.00 0.00 0.00 0.00 0.00 0.00 0.00 0.00 0.00 0.00 0.00 0.00 0.00 0.01 0.01 0.01 0.01 0.01 0.02 0.02 0.02 0.02 0.02 0.02 0.03 0.03 0.03 0.04 0.04
0.00 0.00 0.00 0.00 0.00 0.00 0.00 0.00 0.00 0.00 0.00 0.00 0.00 0.00 0.00 0.00 0.00 0.00 0.00 0.00 0.00 0.00 0.00 0.00 0.00 0.00 0.00 0.00 0.01 0.01 0.01 0.01 0.01 0.02 0.02 0.02 0.02 0.02 0.03 0.03 0.02 0.01 0.02 0.03
0.00 0.00 0.00 0.00 0.00 0.00 0.00 0.00 0.00 0.00 0.00 0.00 0.00 0.00 0.00 0.00 0.00 0.00 0.00 0.00 0.00 0.00 0.00 0.00 0.00 0.00 0.01 0.00 0.00 0.00 0.01 0.01 0.01 0.01 0.01 0.01 0.02 0.01 0.02 0.02 0.01 0.01 0.01 0.02
0.00 0.00 0.00 0.00 0.00 0.00 0.00 0.00 0.00 0.00 0.00 0.00 0.00 0.00 0.00 0.00 0.00 0.00 0.00 0.00 0.00 0.00 0.00 0.00 0.00 0.00 0.00 0.00 0.00 0.00 0.01 0.01 0.01 0.01 0.01 0.01 0.01 0.01 0.01 0.01 0.00 0.01 0.01 0.02
0.00 0.00 0.00 0.00 0.00 0.00 0.00 0.00 0.00 0.00 0.00 0.00 0.00 0.00 0.00 0.00 0.00 0.00 0.00 0.00 0.00 0.00 0.00 0.00 0.00 0.00 0.00 0.00 0.01 0.01 0.01 0.01 0.01 0.01 0.01 0.01 0.01 0.01 0.00 0.00 0.00 0.01 0.01 0.02
0.00 0.00 0.00 0.00 0.00 0.00 0.00 0.00 0.00 0.00 0.00 0.00 0.00 0.00 0.00 0.00 0.00 0.00 0.00 0.00 0.00 0.00 0.00 0.00 0.00 0.00 0.00 0.00 0.01 0.03 0.03 0.03 0.02 0.01 0.01 0.01 0.02 0.02 0.01 0.01 0.01 0.01 0.02 0.02
0.00 0.00 0.00 0.00 0.00 0.00 0.00 0.00 0.00 0.00 0.00 0.00 0.00 0.00 0.00 0.00 0.00 0.00 0.00 0.00 0.00 0.00 0.00 0.00 0.00 0.00 0.00 0.00 0.02 0.04 0.03 0.03 0.02 0.02 0.02 0.01 0.01 0.01 0.01 0.01 0.02 0.01 0.02 0.02
0.00 0.00 0.00 0.00 0.00 0.00 0.00 0.00 0.00 0.00 0.00 0.00 0.00 0.00 0.00 0.00 0.00 0.00 0.00 0.00 0.00 0.00 0.00 0.00 0.00 0.00 0.00 0.00 0.01 0.03 0.01 0.01 0.01 0.01 0.01 0.01 0.01 0.01 0.01 0.01 0.01 0.01 0.02 0.02
0.00 0.00 0.00 0.00 0.00 0.00 0.00 0.00 0.00 0.00 0.00 0.00 0.00 0.00 0.00 0.00 0.00 0.00 0.00 0.00 0.00 0.00 0.00 0.00 0.00 0.00 0.00 0.00 0.00 0.00 0.00 0.01 0.01 0.01 0.01 0.01 0.02 0.03 0.02 0.01 0.02 0.02 0.03 0.03
0.00 0.00 0.00 0.00 0.00 0.00 0.00 0.00 0.00 0.00 0.00 0.00 0.00 0.00 0.00 0.00 0.00 0.00 0.00 0.00 0.00 0.00 0.00 0.00 0.00 0.00 0.00 0.00 0.00 0.00 0.00 0.01 0.01 0.02 0.02 0.02 0.02 0.02 0.03 0.03 0.03 0.02 0.02 0.03
0.00 0.00 0.00 0.00 0.00 0.00 0.00 0.00 0.00 0.00 0.00 0.00 0.00 0.00 0.00 0.00 0.00 0.00 0.00 0.00 0.00 0.00 0.00 0.00 0.00 0.00 0.00 0.01 0.01 0.00 0.00 0.00 0.01 0.02 0.02 0.02 0.02 0.03 0.05 0.05 0.03 0.01 0.01 0.02
0.00 0.00 0.00 0.00 0.00 0.00 0.00 0.00 0.00 0.00 0.00 0.00 0.00 0.00 0.00 0.00 0.00 0.00 0.00 0.00 0.00 0.00 0.00 0.00 0.00 0.00 0.00 0.00 0.00 0.00 0.00 0.00 0.01 0.01 0.01 0.02 0.02 0.02 0.04 0.03 0.02 0.01 0.01 0.02
0.00 0.00 0.00 0.00 0.00 0.00 0.00 0.00 0.00 0.00 0.00 0.00 0.00 0.00 0.00 0.00 0.00 0.00 0.00 0.00 0.00 0.00 0.00 0.00 0.00 0.00 0.00 0.00 0.00 0.00 0.00 0.01 0.01 0.01 0.01 0.01 0.01 0.01 0.01 0.01 0.01 0.01 0.01 0.01
0.00 0.00 0.00 0.00 0.00 0.00 0.00 0.00 0.00 0.00 0.00 0.00 0.00 0.00 0.00 0.00 0.00 0.00 0.00 0.00 0.00 0.00 0.00 0.00 0.00 0.00 0.00 0.00 0.00 0.01 0.01 0.01 0.01 0.01 0.01 0.00 0.00 0.01 0.01 0.01 0.01 0.01 0.01 0.01
0.00 0.00 0.00 0.00 0.00 0.00 0.00 0.00 0.00 0.00 0.00 0.00 0.00 0.00 0.00 0.00 0.00 0.00 0.00 0.00 0.00 0.00 0.00 0.00 0.00 0.00 0.00 0.01 0.01 0.02 0.01 0.01 0.01 0.01 0.01 0.01 0.00 0.00 0.01 0.01 0.01 0.02 0.02 0.02
0.00 0.00 0.00 0.00 0.00 0.00 0.00 0.00 0.00 0.00 0.00 0.00 0.00 0.00 0.00 0.00 0.00 0.00 0.00 0.00 0.00 0.00 0.00 0.00 0.00 0.01 0.02 0.02 0.02 0.02 0.02 0.02 0.01 0.01 0.01 0.01 0.00 0.00 0.01 0.02 0.03 0.05 0.04 0.03
0.00 0.00 0.00 0.00 0.00 0.00 0.00 0.00 0.00 0.00 0.00 0.00 0.00 0.00 0.00 0.00 0.00 0.00 0.00 0.00 0.00 0.00 0.00 0.01 0.01 0.01 0.01 0.01 0.01 0.01 0.02 0.02 0.02 0.02 0.02 0.01 0.01 0.01 0.01 0.02 0.03 0.04 0.04 0.05
0.00 0.00 0.00 0.00 0.00 0.00 0.00 0.00 0.00 0.00 0.00 0.00 0.01 0.00 0.00 0.00 0.01 0.01 0.00 0.00 0.01 0.01 0.01 0.01 0.01 0.01 0.01 0.01 0.01 0.01 0.02 0.02 0.03 0.03 0.03 0.02 0.01 0.01 0.02 0.03 0.04 0.04 0.02 0.02
0.00 0.01 0.00 0.00 0.00 0.00 0.00 0.00 0.01 0.01 0.00 0.00 0.01 0.01 0.01 0.01 0.01 0.01 0.01 0.01 0.01 0.01 0.01 0.01 0.01 0.01 0.01 0.01 0.01 0.01 0.02 0.02 0.03 0.03 0.04 0.04 0.04 0.03 0.03 0.03 0.03 0.03 0.02 0.01
0.01 0.01 0.01 0.01 0.01 0.00 0.00 0.00 0.00 0.01 0.01 0.02 0.02 0.02 0.02 0.02 0.02 0.02 0.02 0.02 0.02 0.02 0.02 0.02 0.01 0.01 0.01 0.01 0.01 0.01 0.02 0.03 0.04 0.05 0.05 0.05 0.04 0.03 0.03 0.02 0.02 0.02 0.02 0.01
0.02 0.02 0.02 0.01 0.01 0.01 0.00 0.00 0.01 0.02 0.03 0.03 0.03 0.02 0.03 0.04 0.04 0.04 0.03 0.04 0.04 0.03 0.03 0.03 0.03 0.02 0.02 0.02 0.03 0.04 0.05 0.05 0.05 0.04 0.03 0.02 0.02 0.01 0.02 0.02 0.02 0.02 0.02 0.02
MSLP
1010.72 1011.29 1011.75 1012.09 1012.31 1012.45 1012.55 1012.64 1012.75 1012.89 1013.03 1013.17 1013.28 1013.34 1013.35 1013.33 1013.32 1013.36 1013.48 1013.72 1014.07 1014.51 1015.01 1015.52 1015.99 1016.37 1016.64 1016.80 1016.86 1016.84 1016.78 1016.71 1016.66 1016.63 1016.62 1016.62 1016.63 1016.63 1016.62 1016.59 1016.56 1016.54 1016.54 1016.59
1011.36 1011.82 1012.18 1012.43 1012.60 1012.72 1012.83 1012.96 1013.13 1013.32 1013.50 1013.65 1013.74 1013.75 1013.70 1013.61 1013.53 1013.51 1013.59 1013.80 1014.13 1014.57 1015.05 1015.54 1015.97 1016.30 1016.52 1016.63 1016.64 1016.60 1016.54 1016.49 1016.48 1016.50 1016.54 1016.59 1016.62 1016.62 1016.58 1016.50 1016.42 1016.33 1016.28 1016.28
1011.84 1012.18 1012.41 1012.57 1012.69 1012.81 1012.96 1013.16 1013.42 1013.69 1013.93 1014.11 1014.18 1014.15 1014.02 1013.84 1013.68 1013.58 1013.60 1013.77 1014.08 1014.50 1014.97 1015.44 1015.83 1016.13 1016.29 1016.35 1016.32 1016.25 1016.18 1016.16 1016.18 1016.26 1016.36 1016.46 1016.53 1016.54 1016.50 1016.39 1016.26 1016.13 1016.02 1015.98
1012.19 1012.37 1012.48 1012.55 1012.63 1012.77 1012.99 1013.30 1013.66 1014.04 1014.35 1014.56 1014.62 1014.53 1014.31 1014.02 1013.74 1013.55 1013.49 1013.60 1013.87 1014.27 1014.73 1015.19 1015.57 1015.83 1015.97 1015.98 1015.92 1015.84 1015.77 1015.76 1015.82 1015.94 1016.10 1016.26 1016.37 1016.42 1016.38 1016.26 1016.11 1015.94 1015.80 1015.71
1012.45 1012.49 1012.47 1012.46 1012.52 1012.69 1012.99 1013.42 1013.91 1014.39 1014.79 1015.03 1015.06 1014.90 1014.58 1014.16 1013.74 1013.42 1013.25 1013.29 1013.51 1013.89 1014.34 1014.80 1015.18 1015.44 1015.57 1015.58 1015.51 1015.42 1015.35 1015.36 1015.45 1015.61 1015.82 1016.02 1016.17 1016.25 1016.22 1016.12 1015.95 1015.76 1015.59 1015.48
1012.69 1012.58 1012.46 1012.38 1012.42 1012.64 1013.03 1013.57 1014.18 1014.76 1015.23 1015.48 1015.49 1015.24 1014.80 1014.23 1013.66 1013.20 1012.92 1012.86 1013.03 1013.38 1013.84 1014.30 1014.71 1015.00 1015.15 1015.18 1015.12 1015.04 1014.99 1015.01 1015.12 1015.31 1015.54 1015.77 1015.95 1016.05 1016.05 1015.95 1015.78 1015.59 1015.41 1015.28
1012.96 1012.73 1012.51 1012.38 1012.42 1012.66 1013.13 1013.76 1014.46 1015.13 1015.64 1015.90 1015.86 1015.53 1014.96 1014.25 1013.54 1012.93 1012.53 1012.38 1012.49 1012.81 1013.26 1013.76 1014.20 1014.54 1014.74 1014.81 1014.79 1014.74 1014.71 1014.75 1014.87 1015.07 1015.31 1015.54 1015.74 1015.84 1015.85 1015.76 1015.59 1015.40 1015.22 1015.09
1013.28 1012.96 1012.66 1012.49 1012.51 1012.78 1013.29 1013.98 1014.74 1015.45 1015.98 1016.22 1016.14 1015.72 1015.05 1014.22 1013.37 1012.64 1012.13 1011.90 1011.95 1012.24 1012.70 1013.22 1013.70 1014.10 1014.36 1014.49 1014.52 1014.52 1014.52 1014.57 1014.70 1014.89 1015.12 1015.34 1015.52 1015.62 1015.62 1015.54 1015.38 1015.19 1015.02 1014.90
1013.65 1013.27 1012.93 1012.71 1012.72 1012.99 1013.50 1014.21 1014.98 1015.69 1016.20 1016.42 1016.29 1015.82 1015.06 1014.15 1013.22 1012.40 1011.81 1011.50 1011.50 1011.75 1012.20 1012.73 1013.25 1013.69 1014.01 1014.20 1014.30 1014.34 1014.38 1014.45 1014.58 1014.76 1014.96 1015.16 1015.32 1015.40 1015.39 1015.29 1015.14 1014.97 1014.81 1014.69
1014.06 1013.65 1013.27 1013.03 1013.01 1013.25 1013.74 1014.41 1015.14 1015.82 1016.30 1016.48 1016.32 1015.81 1015.03 1014.08 1013.11 1012.25 1011.61 1011.25 1011.20 1011.41 1011.82 1012.33 1012.85 1013.31 1013.67 1013.92 1014.06 1014.15 1014.23 1014.33 1014.46 1014.63 1014.82 1014.99 1015.12 1015.18 1015.15 1015.06 1014.90 1014.74 1014.59 1014.50
1014.46 1014.06 1013.68 1013.42 1013.37 1013.55 1013.97 1014.57 1015.23 1015.84 1016.26 1016.42 1016.24 1015.74 1014.98 1014.06 1013.11 1012.26 1011.60 1011.21 1011.10 1011.25 1011.59 1012.04 1012.52 1012.96 1013.32 1013.59 1013.77 1013.90 1014.02 1014.14 1014.30 1014.47 1014.66 1014.82 1014.93 1014.97 1014.94 1014.84 1014.70 1014.55 1014.42 1014.34
1014.86 1014.49 1014.12 1013.86 1013.77 1013.89 1014.22 1014.71 1015.27 1015.79 1016.16 1016.28 1016.12 1015.67 1014.98 1014.13 1013.25 1012.44 1011.80 1011.38 1011.21 1011.27 1011.51 1011.86 1012.25 1012.62 1012.93 1013.18 1013.38 1013.54 1013.69 1013.86 1014.05 1014.25 1014.45 1014.62 1014.74 1014.79 1014.77 1014.69 1014.56 1014.42 1014.31 1014.24
1015.25 1014.93 1014.60 1014.34 1014.21 1014.26 1014.49 1014.86 1015.31 1015.73 1016.03 1016.14 1016.01 1015.63 1015.04 1014.31 1013.53 1012.80 1012.19 1011.75 1011.52 1011.46 1011.56 1011.76 1012.00 1012.25 1012.48 1012.68 1012.86 1013.04 1013.23 1013.44 1013.69 1013.94 1014.19 1014.40 1014.56 1014.64 1014.65 1014.60 1014.50 1014.39 1014.29 1014.23
1015.65 1015.41 1015.12 1014.87 1014.71 1014.69 1014.82 1015.07 1015.40 1015.72 1015.96 1016.05 1015.96 1015.67 1015.20 1014.61 1013.95 1013.30 1012.73 1012.27 1011.95 1011.77 1011.69 1011.70 1011.77 1011.86 1011.96 1012.09 1012.23 1012.41 1012.63 1012.90 1013.21 1013.54 1013.86 1014.14 1014.36 1014.50 1014.57 1014.56 1014.51 1014.44 1014.36 1014.31
1016.08 1015.90 1015.67 1015.44 1015.26 1015.18 1015.22 1015.36 1015.57 1015.79 1015.98 1016.06 1016.01 1015.80 1015.46 1014.99 1014.45 1013.89 1013.35 1012.86 1012.45 1012.11 1011.85 1011.66 1011.52 1011.43 1011.40 1011.42 1011.51 1011.68 1011.93 1012.25 1012.63 1013.04 1013.44 1013.81 1014.11 1014.34 1014.48 1014.54 1014.55 1014.52 1014.48 1014.45
1016.53 1016.43 1016.25 1016.04 1015.86 1015.73 1015.69 1015.73 1015.83 1015.97 1016.09 1016.16 1016.14 1016.01 1015.76 1015.40 1014.96 1014.47 1013.95 1013.42 1012.91 1012.42 1011.98 1011.58 1011.25 1010.97 1010.79 1010.70 1010.73 1010.87 1011.14 1011.50 1011.95 1012.43 1012.92 1013.38 1013.78 1014.10 1014.33 1014.48 1014.56 1014.59 1014.59 1014.58
1016.99 1016.95 1016.82 1016.64 1016.46 1016.30 1016.20 1016.16 1016.18 1016.23 1016.30 1016.34 1016.33 1016.25 1016.07 1015.79 1015.42 1014.96 1014.44 1013.87 1013.26 1012.64 1012.03 1011.44 1010.92 1010.48 1010.15 1009.96 1009.92 1010.03 1010.30 1010.69 1011.18 1011.72 1012.28 1012.82 1013.31 1013.72 1014.05 1014.29 1014.46 1014.57 1014.63 1014.65
1017.43 1017.43 1017.34 1017.19 1017.02 1016.84 1016.70 1016.60 1016.54 1016.53 1016.55 1016.56 1016.54 1016.47 1016.32 1016.08 1015.74 1015.30 1014.76 1014.14 1013.44 1012.70 1011.95 1011.22 1010.54 1009.96 1009.52 1009.23 1009.12 1009.18 1009.43 1009.82 1010.33 1010.91 1011.52 1012.12 1012.68 1013.18 1013.60 1013.94 1014.20 1014.39 1014.53 1014.61
1017.80 1017.82 1017.76 1017.64 1017.48 1017.30 1017.13 1016.99 1016.89 1016.82 1016.78 1016.75 1016.71 1016.63 1016.48 1016.24 1015.90 1015.45 1014.88 1014.20 1013.43 1012.60 1011.74 1010.90 1010.12 1009.44 1008.90 1008.53 1008.35 1008.37 1008.57 1008.94 1009.43 1010.01 1010.64 1011.27 1011.89 1012.46 1012.96 1013.40 1013.76 1014.04 1014.26 1014.42
1018.08 1018.11 1018.06 1017.96 1017.81 1017.63 1017.46 1017.30 1017.16 1017.05 1016.97 1016.90 1016.82 1016.70 1016.52 1016.26 1015.89 1015.40 1014.80 1014.07 1013.25 1012.36 1011.44 1010.53 1009.67 1008.93 1008.32 1007.89 1007.66 1007.61 1007.76 1008.08 1008.53 1009.08 1009.70 1010.34 1010.98 1011.60 1012.18 1012.70 1013.16 1013.54 1013.86 1014.10
1018.25 1018.27 1018.23 1018.13 1018.00 1017.83 1017.66 1017.49 1017.33 1017.20 1017.08 1016.96 1016.83 1016.67 1016.45 1016.14 1015.73 1015.20 1014.56 1013.80 1012.94 1012.02 1011.07 1010.13 1009.25 1008.47 1007.83 1007.36 1007.07 1006.97 1007.06 1007.31 1007.69 1008.19 1008.77 1009.39 1010.05 1010.70 1011.33 1011.92 1012.47 1012.95 1013.36 1013.68
1018.34 1018.34 1018.29 1018.19 1018.06 1017.90 1017.73 1017.56 1017.39 1017.23 1017.08 1016.93 1016.75 1016.54 1016.26 1015.91 1015.45 1014.88 1014.21 1013.43 1012.56 1011.64 1010.69 1009.76 1008.88 1008.11 1007.46 1006.97 1006.64 1006.49 1006.51 1006.69 1007.01 1007.44 1007.96 1008.55 1009.19 1009.85 1010.52 1011.17 1011.79 1012.35 1012.84 1013.24
1018.38 1018.34 1018.27 1018.16 1018.02 1017.86 1017.68 1017.50 1017.32 1017.15 1016.97 1016.77 1016.56 1016.30 1015.98 1015.57 1015.08 1014.48 1013.79 1013.01 1012.16 1011.26 1010.34 1009.45 1008.62 1007.87 1007.25 1006.76 1006.41 1006.22 1006.19 1006.30 1006.54 1006.90 1007.36 1007.90 1008.52 1009.17 1009.86 1010.54 1011.21 1011.83 1012.38 1012.84
1018.41 1018.34 1018.23 1018.08 1017.92 1017.73 1017.53 1017.33 1017.13 1016.92 1016.71 1016.48 1016.22 1015.92 1015.56 1015.13 1014.62 1014.01 1013.33 1012.57 1011.75 1010.91 1010.06 1009.24 1008.47 1007.78 1007.20 1006.74 1006.40 1006.19 1006.12 1006.18 1006.36 1006.66 1007.06 1007.55 1008.12 1008.75 1009.43 1010.12 1010.80 1011.45 1012.03 1012.52
1018.47 1018.34 1018.18 1017.99 1017.77 1017.53 1017.28 1017.03 1016.78 1016.52 1016.27 1016.00 1015.71 1015.38 1015.00 1014.56 1014.05 1013.46 1012.81 1012.10 1011.36 1010.59 1009.84 1009.11 1008.43 1007.83 1007.32 1006.90 1006.59 1006.40 1006.31 1006.34 1006.48 1006.72 1007.06 1007.50 1008.03 1008.62 1009.27 1009.94 1010.61 1011.24 1011.82 1012.31
1018.57 1018.39 1018.15 1017.88 1017.57 1017.24 1016.91 1016.58 1016.25 1015.93 1015.62 1015.31 1014.99 1014.64 1014.26 1013.82 1013.34 1012.80 1012.22 1011.59 1010.94 1010.29 1009.64 1009.03 1008.47 1007.97 1007.55 1007.21 1006.95 1006.78 1006.71 1006.74 1006.85 1007.06 1007.36 1007.75 1008.22 1008.77 1009.36 1009.99 1010.61 1011.21 1011.75 1012.21
Thickness
5849 5843 5835 5840 5847 5846 5841 5834 5828 5830 5837 5828 5821 5821 5823 5823 5819 5815 5812 5809 5805 5802 5803 5800 5795 5791 5786 5781 5777 5774 5771 5769 5766 5764 5762 5760 5759 5758 5757 5756 5754 5752 5751 5751
5833 5832 5845 5850 5847 5843 5838 5831 5829 5829 5833 5829 5823 5823 5831 5829 5823 5821 5817 5813 5810 5807 5804 5800 5797 5793 5789 5784 5780 5777 5773 5771 5769 5767 5764 5762 5761 5761 5760 5758 5755 5754 5753 5752
5826 5839 5846 5840 5836 5833 5834 5833 5831 5826 5828 5831 5824 5820 5826 5831 5830 5827 5825 5822 5819 5813 5808 5803 5799 5796 5793 5788 5784 5782 5777 5774 5772 5769 5768 5765 5762 5761 5760 5758 5757 5755 5754 5753
5829 5839 5836 5834 5833 5834 5826 5840 5836 5828 5823 5823 5823 5812 5824 5830 5825 5825 5826 5825 5823 5820 5815 5810 5805 5800 5797 5793 5790 5785 5781 5777 5775 5772 5770 5766 5762 5760 5759 5759 5759 5757 5755 5754
5822 5830 5829 5827 5834 5837 5834 5840 5836 5832 5827 5823 5824 5816 5826 5832 5824 5827 5831 5830 5829 5826 5821 5815 5811 5806 5803 5799 5794 5789 5784 5780 5777 5774 5771 5767 5765 5764 5764 5762 5759 5757 5756 5754
5827 5836 5837 5836 5841 5842 5837 5833 5829 5830 5829 5807 5818 5813 5818 5833 5831 5834 5835 5834 5832 5829 5825 5820 5817 5811 5806 5803 5797 5792 5786 5781 5779 5776 5773 5769 5766 5763 5761 5759 5758 5758 5757 5755
5808 5821 5833 5840 5827 5830 5831 5820 5805 5801 5803 5807 5822 5814 5822 5840 5845 5843 5839 5837 5836 5832 5827 5822 5816 5811 5807 5803 5799 5795 5789 5783 5781 5778 5774 5771 5768 5765 5761 5760 5758 5757 5756 5755
5795 5799 5821 5831 5830 5823 5825 5826 5803 5790 5797 5812 5815 5814 5833 5848 5850 5849 5848 5844 5839 5834 5830 5825 5820 5816 5811 5806 5802 5797 5791 5786 5783 5779 5776 5773 5770 5769 5767 5762 5761 5758 5756 5754
5801 5802 5824 5830 5836 5833 5820 5823 5836 5820 5810 5805 5816 5823 5837 5847 5845 5845 5844 5842 5838 5836 5832 5828 5824 5820 5815 5810 5805 5801 5794 5789 5785 5782 5777 5774 5771 5769 5767 5764 5761 5759 5756 5754
5808 5796 5812 5822 5827 5826 5831 5831 5819 5812 5790 5788 5804 5813 5824 5832 5836 5841 5841 5840 5839 5838 5835 5832 5827 5823 5819 5814 5808 5803 5797 5791 5787 5784 5780 5777 5773 5770 5767 5764 5760 5757 5754 5752
5808 5794 5799 5809 5808 5811 5812 5814 5815 5814 5810 5793 5792 5812 5841 5840 5842 5842 5843 5843 5842 5840 5837 5833 5828 5825 5820 5815 5810 5803 5798 5792 5789 5785 5781 5778 5775 5772 5768 5764 5760 5756 5753 5750
5800 5797 5791 5802 5816 5823 5821 5819 5813 5797 5793 5801 5801 5813 5847 5847 5850 5848 5845 5844 5844 5841 5839 5835 5830 5825 5819 5814 5810 5804 5799 5794 5790 5787 5782 5778 5775 5772 5768 5764 5760 5757 5752 5749
5791 5785 5772 5778 5792 5803 5807 5814 5818 5819 5811 5801 5797 5810 5841 5844 5844 5845 5844 5843 5841 5838 5836 5833 5828 5823 5818 5814 5810 5806 5801 5797 5792 5788 5782 5778 5774 5771 5767 5763 5759 5755 5750 5747
5788 5783 5778 5776 5788 5800 5797 5802 5809 5810 5799 5799 5805 5815 5828 5833 5834 5838 5840 5840 5839 5836 5833 5830 5825 5822 5818 5814 5809 5806 5802 5798 5793 5788 5782 5777 5773 5769 5766 5762 5757 5753 5749 5745
5780 5774 5780 5789 5798 5800 5797 5798 5801 5802 5807 5805 5811 5814 5821 5829 5832 5834 5836 5835 5833 5831 5829 5827 5824 5821 5817 5813 5809 5805 5801 5797 5793 5788 5782 5777 5773 5769 5764 5759 5755 5751 5747 5743
5767 5766 5771 5774 5787 5790 5788 5795 5798 5799 5803 5806 5809 5810 5827 5830 5832 5829 5829 5829 5827 5826 5826 5825 5822 5819 5816 5812 5808 5804 5799 5796 5791 5786 5781 5776 5771 5766 5761 5757 5753 5748 5744 5740
5759 5755 5755 5762 5776 5775 5771 5789 5793 5795 5802 5804 5800 5809 5821 5820 5820 5821 5823 5823 5823 5823 5823 5821 5821 5819 5815 5813 5809 5804 5799 5795 5789 5784 5779 5774 5770 5764 5759 5755 5750 5746 5741 5737
5746 5747 5751 5757 5755 5743 5778 5799 5800 5795 5798 5805 5805 5810 5814 5815 5819 5822 5822 5820 5820 5821 5821 5820 5819 5817 5815 5812 5808 5803 5799 5793 5786 5781 5776 5771 5767 5761 5756 5751 5746 5742 5737 5732
5744 5740 5744 5748 5745 5754 5770 5782 5787 5783 5783 5797 5798 5801 5806 5812 5813 5814 5819 5819 5818 5820 5820 5819 5817 5815 5812 5809 5805 5799 5793 5788 5783 5778 5772 5768 5764 5757 5751 5746 5742 5737 5732 5727
5735 5736 5738 5739 5734 5737 5761 5778 5786 5780 5768 5786 5789 5790 5795 5798 5795 5801 5811 5812 5813 5815 5815 5813 5813 5811 5806 5803 5800 5794 5789 5784 5779 5775 5770 5766 5761 5754 5747 5742 5737 5733 5728 5723
5722 5722 5726 5730 5731 5748 5761 5771 5773 5752 5760 5777 5782 5783 5785 5785 5789 5797 5803 5803 5805 5807 5808 5808 5806 5803 5800 5798 5793 5788 5784 5780 5777 5772 5767 5761 5757 5751 5745 5739 5733 5728 5724 5718
5718 5721 5718 5724 5723 5733 5752 5757 5752 5753 5764 5769 5773 5777 5777 5780 5784 5789 5792 5794 5797 5798 5800 5799 5796 5795 5793 5790 5786 5781 5777 5775 5771 5765 5760 5755 5750 5746 5741 5734 5728 5723 5718 5712
5713 5718 5724 5722 5725 5735 5744 5745 5748 5753 5753 5758 5763 5768 5771 5772 5775 5779 5782 5785 5787 5789 5789 5790 5787 5784 5783 5782 5779 5774 5770 5767 5762 5756 5751 5747 5742 5737 5733 5728 5722 5716 5711 5708
5704 5707 5709 5710 5720 5726 5731 5735 5739 5743 5744 5750 5755 5759 5763 5764 5767 5770 5772 5775 5777 5779 5779 5779 5777 5774 5772 5772 5770 5767 5763 5760 5755 5749 5744 5739 5734 5728 5724 5720 5716 5711 5706 5702
5693 5698 5700 5700 5707 5714 5719 5723 5726 5731 5736 5741 5745 5749 5753 5756 5759 5761 5763 5765 5767 5768 5769 5769 5767 5765 5763 5762 5760 5759 5755 5752 5747 5742 5736 5731 5727 5721 5715 5711 5707 5703 5699 5696
5686 5688 5690 5694 5699 5703 5706 5712 5717 5720 5724 5729 5734 5738 5744 5748 5749 5752 5753 5755 5755 5756 5757 5757 5756 5755 5753 5752 5749 5748 5746 5743 5738 5733 5728 5725 5722 5715 5709 5703 5697 5690 5687 5682